METEOR 2-11 DEB, 60005

Orbit data source: Space-Track

METEOR 2-11 DEB, 60005 is space debris in LEO originally from a launch on Thu, 05 Jul 1984 UTC launched from the Plesetsk Missile And Space Complex (PKMTR). Debris objects in space refer to the collection of defunct objects orbiting the Earth. Examples of debris include non-operational satellites, rocket bodies, and fragments generated from explosions, collisions, or faulty payload assembly.

Loading next visibility...
Identifier
60005, 1984-072AA
Orbit
LEO
Last TLE update
5 days ago
Origin
Manufacturer
Unknown
Mission
Spacecraft
Bus & Motor
Unknown
Mass
Unknown
Launch date (UTC)
1984-07-05 (41 years ago)
Launch vehicle
Unknown
Launch site
Plesetsk Missile And Space Complex (PKMTR)
Object type
Payload
Rocket body
Debris
Shape & HBR
Unknown
Radar Cross Section
Small (<0.1 m²)

Expand to show TLE details & history

TLE from 5 days ago
0 METEOR 2-11 DEB
1 60005U 84072AA  25123.86351610  .00003557  00000-0  24558-2 0  9991
2 60005  82.5211 336.4501 0023703  47.5871 312.7297 13.98786543379656
Epoch: 2025-05-03T20:43Z
Definitive object data (Epoch: 2025-05-03T20:43:27.791Z)
Latitude
-0.00003°
Longitude
163.58463°
Altitude
889.239 km
Speed
7.413 km/s
True Right ascension
22h 25m 48s
True Declination
0° 00' 00"
Sunlit
Object was in daylight at TLE epoch
Visualization TLE readout
Latitude
59.3444°
Longitude
171.92174°
Altitude
892.686 km
Speed
7.419 km/s
Apparent Right ascension
00h 39m 30s
Apparent Declination
15° 06' 30"
Sunlit
Object is in daylight
Visualization observer readout
Local Sidereal Time
13:54:32
Azimuth
21.542° NNE
Elevation
-32.269°
Doppler factor
1
Orbital elements
Apogee altitude
912.373 km
Perigee altitude
877.893 km
Semi-major axis
7,273.27 km
Eccentricity
0.0023703
Inclination
82.5211°
RAAN
336.4501°
Arg. of periapsis
47.5871°
True anomaly
312.52978°
Mean anomaly
312.7297°
Eccentric anomaly
312.62978°
Mean motion
3.49904 °/min
BSTAR
0.0024558
Orbital period
102.89 mins
Loading maneuver chart data...
Loading SW <> Apogee altitude chart data...
Loading historical data...
Loading historical data...
Loading historical data...
Loading historical data...
Loading historical data...
Loading historical data...
Loading historical data...

METEOR 2-11 DEB Visibility forecast

Observer location: undefined°, undefined°

Span
Click to sort rows by Start time (UTC) header in descending order
Start Az.
Max El. time (UTC)
Max El. Az.
Max El.
End time (UTC)
End Az.
11 mins2025-05-09 14:09:48.659Z180.859° SSW2025-05-09 14:14:48.659Z137.554° SSE44.084°2025-05-09 14:20:48.659Z10.233° NNE
10 mins2025-05-10 00:56:48.659Z5.805° NNE2025-05-10 01:01:48.659Z96.722° ESE38.249°2025-05-10 01:06:48.659Z155.112° SSE
6 mins2025-05-10 02:41:48.659Z309.559° NW2025-05-10 02:44:48.659Z272.888° WNW18.801°2025-05-10 02:47:48.659Z238.076° WSW
|